Location: Bonnesvalyn
(49.1218°N, 3.3177°E)
Time: 14:07:56
(UTC+00:00)

ATLAS 5 CENTAUR R/B - Pass Details

Date: 09 February 2023
Orbit: 460 x 1178 km, 63.3° (Epoch: 19 March)

Event Time Altitude Azimuth Distance (km) Brightness Sun altitude
Rises 18:05:42 0° 314° (NW) 2,820 5.5 -11.7°
Reaches altitude 10° 18:08:30 10° 335° (NNW) 2,037 4.4 -12.2°
Maximum altitude 18:11:36 17° 17° (NNE) 1,736 3.6 -12.7°
Enters shadow 18:14:00 13° 49° (NE) 2,076 3.8 -13.1°
